Multibeam Report for NBP0710


Ship Name: Nathaniel B. Palmer
Chief Scientist: Chereskin, Teresa
University of California, San Diego
Source Organization: Marine Geoscience Data System (MGDS)
Start Date: 2007-11-15
End Date: 2007-12-06


View ISO Metadata

Visit the full NCEI Bathymetry Viewer


Multibeam Bathymetry

Cruise Details

Project: Dynamics and transport of the Antarctic Circumpola
Instrument: Simrad EM120

Data Quality

Number of Files: 310
Number of Records: 121103
BATHYMETRY DATA Quantity Percentage
Number of Beams 23130673 100%
Number of Good Beams 15209593 65.76%
Number of Zero Beams 7921080 34.24%
Number of Flagged Beams 0 0%
AMPLITUDE DATA Quantity Percentage
Number of Beams 23130673 100%
Number of Good Beams 15209593 65.76%
Number of Zero Beams 7921080 34.24%
Number of Flagged Beams 0 0%
SIDESCAN DATA Quantity Percentage
Number of Pixels 124009472 100%
Number of Good Pixels 53472534 43.12%
Number of Zero Pixels 0 0%
Number of Flagged Pixels 70536938 56.88%

Navigation Totals

Total Time: 275.1332 hours
Total Track Length: 4325.6162 km
Average Speed: 15.722 km/hr (8.4892 knots)

Cruise Bounds

Northern Extent: -54.721413
Southern Extent: -62.309147
Western Extent: -65.08145
Eastern Extent: -59.821243

Limits

Minimum Sonar Depth 0 Maximum Sonar Depth 31457.2793
Minimum Altitude 0 Maximum Altitude 5905.4399
Minimum Depth 53.48 Maximum Depth 6491.1001
Minimum Amplitude 0 Maximum Amplitude 23
Minimum Sidescan 0 Maximum Sidescan 63

File Information

Full Resolution Bathymetry as collected (raw): 308

Files File Size Description
0001_20071115_022441_raw.mb56.gz 39.67MB Simrad multibeam vendor format
0002_20071115_032441_raw.mb56.gz 25.14MB Simrad multibeam vendor format
0003_20071115_042442_raw.mb56.gz 16.79MB Simrad multibeam vendor format
0004_20071115_060605_raw.mb56.gz 1.67MB Simrad multibeam vendor format
0005_20071115_061520_raw.mb56.gz 9.65MB Simrad multibeam vendor format
0006_20071115_071520_raw.mb56.gz 3.91MB Simrad multibeam vendor format
0007_20071115_083705_raw.mb56.gz 8.46MB Simrad multibeam vendor format
0008_20071115_093705_raw.mb56.gz 8.04MB Simrad multibeam vendor format
0009_20071115_112744_raw.mb56.gz 9.42MB Simrad multibeam vendor format
0010_20071115_122742_raw.mb56.gz 8.29MB Simrad multibeam vendor format
0011_20071115_132742_raw.mb56.gz 1.78MB Simrad multibeam vendor format
0012_20071115_134134_raw.mb56.gz 6.66MB Simrad multibeam vendor format
0013_20071115_144134_raw.mb56.gz 6.64MB Simrad multibeam vendor format
0014_20071115_154134_raw.mb56.gz 6.92MB Simrad multibeam vendor format
0015_20071115_164134_raw.mb56.gz 6.26MB Simrad multibeam vendor format
0016_20071115_174134_raw.mb56.gz 4.67MB Simrad multibeam vendor format
0017_20071115_193538_raw.mb56.gz 6.65MB Simrad multibeam vendor format
0018_20071115_203538_raw.mb56.gz 6.27MB Simrad multibeam vendor format
0020_20071115_225048_raw.mb56.gz 6.27MB Simrad multibeam vendor format
0021_20071115_235048_raw.mb56.gz 5.81MB Simrad multibeam vendor format
0022_20071116_005049_raw.mb56.gz 5.95MB Simrad multibeam vendor format
0023_20071116_015049_raw.mb56.gz 1.32MB Simrad multibeam vendor format
0024_20071116_032634_raw.mb56.gz 6.31MB Simrad multibeam vendor format
0025_20071116_042634_raw.mb56.gz 5.99MB Simrad multibeam vendor format
0026_20071116_052634_raw.mb56.gz 6.21MB Simrad multibeam vendor format
0027_20071116_062634_raw.mb56.gz 1.68MB Simrad multibeam vendor format
0029_20071116_081619_raw.mb56.gz 6.50MB Simrad multibeam vendor format
0030_20071116_091619_raw.mb56.gz 6.05MB Simrad multibeam vendor format
0031_20071116_113534_raw.mb56.gz 6.20MB Simrad multibeam vendor format
0032_20071116_123535_raw.mb56.gz 6.15MB Simrad multibeam vendor format
0033_20071116_133535_raw.mb56.gz 217.4KB Simrad multibeam vendor format
0034_20071116_145537_raw.mb56.gz 6.22MB Simrad multibeam vendor format
0035_20071116_155537_raw.mb56.gz 6.14MB Simrad multibeam vendor format
0036_20071116_165537_raw.mb56.gz 0.69MB Simrad multibeam vendor format
0037_20071116_183933_raw.mb56.gz 0.58MB Simrad multibeam vendor format
0038_20071116_184522_raw.mb56.gz 6.12MB Simrad multibeam vendor format
0039_20071116_194520_raw.mb56.gz 5.92MB Simrad multibeam vendor format
0040_20071116_204520_raw.mb56.gz 2.09MB Simrad multibeam vendor format
0041_20071116_220846_raw.mb56.gz 5.77MB Simrad multibeam vendor format
0042_20071116_230846_raw.mb56.gz 5.81MB Simrad multibeam vendor format
0043_20071117_000846_raw.mb56.gz 5.36MB Simrad multibeam vendor format
0044_20071117_020848_raw.mb56.gz 5.98MB Simrad multibeam vendor format
0045_20071117_030848_raw.mb56.gz 6.01MB Simrad multibeam vendor format
0046_20071117_040848_raw.mb56.gz 5.77MB Simrad multibeam vendor format
0048_20071117_060635_raw.mb56.gz 6.01MB Simrad multibeam vendor format
0049_20071117_070635_raw.mb56.gz 6.08MB Simrad multibeam vendor format
0050_20071117_080635_raw.mb56.gz 6.15MB Simrad multibeam vendor format
0051_20071117_090635_raw.mb56.gz 6.58MB Simrad multibeam vendor format
0052_20071117_100635_raw.mb56.gz 159.9KB Simrad multibeam vendor format
0053_20071117_111618_raw.mb56.gz 5.76MB Simrad multibeam vendor format
0054_20071117_121618_raw.mb56.gz 5.88MB Simrad multibeam vendor format
0055_20071117_131619_raw.mb56.gz 2.83MB Simrad multibeam vendor format
0056_20071117_144524_raw.mb56.gz 5.94MB Simrad multibeam vendor format
0057_20071117_154524_raw.mb56.gz 3.85MB Simrad multibeam vendor format
0058_20071117_162311_raw.mb56.gz 4.71MB Simrad multibeam vendor format
0059_20071117_184653_raw.mb56.gz 6.58MB Simrad multibeam vendor format
0060_20071117_194653_raw.mb56.gz 6.60MB Simrad multibeam vendor format
0061_20071117_204653_raw.mb56.gz 0.67MB Simrad multibeam vendor format
0062_20071117_220713_raw.mb56.gz 6.80MB Simrad multibeam vendor format
0063_20071117_230713_raw.mb56.gz 7.20MB Simrad multibeam vendor format
0064_20071118_000713_raw.mb56.gz 333.2KB Simrad multibeam vendor format
0065_20071118_011603_raw.mb56.gz 6.86MB Simrad multibeam vendor format
0066_20071118_021603_raw.mb56.gz 6.98MB Simrad multibeam vendor format
0067_20071118_031601_raw.mb56.gz 19.6KB Simrad multibeam vendor format
0068_20071118_041539_raw.mb56.gz 7.32MB Simrad multibeam vendor format
0069_20071118_051539_raw.mb56.gz 7.14MB Simrad multibeam vendor format
0070_20071118_061540_raw.mb56.gz 1.46MB Simrad multibeam vendor format
0071_20071118_074611_raw.mb56.gz 6.63MB Simrad multibeam vendor format
0072_20071118_084611_raw.mb56.gz 6.46MB Simrad multibeam vendor format
0073_20071118_094612_raw.mb56.gz 255.5KB Simrad multibeam vendor format
0074_20071118_105502_raw.mb56.gz 6.81MB Simrad multibeam vendor format
0075_20071118_115502_raw.mb56.gz 6.30MB Simrad multibeam vendor format
0076_20071118_125503_raw.mb56.gz 3.02MB Simrad multibeam vendor format
0077_20071118_143605_raw.mb56.gz 6.30MB Simrad multibeam vendor format
0078_20071118_153606_raw.mb56.gz 6.77MB Simrad multibeam vendor format
0079_20071118_163606_raw.mb56.gz 6.65MB Simrad multibeam vendor format
0080_20071118_173606_raw.mb56.gz 1.93MB Simrad multibeam vendor format
0081_20071118_220315_raw.mb56.gz 6.13MB Simrad multibeam vendor format
0082_20071118_230315_raw.mb56.gz 6.31MB Simrad multibeam vendor format
0083_20071119_000315_raw.mb56.gz 1.85MB Simrad multibeam vendor format
0084_20071119_013741_raw.mb56.gz 13.6KB Simrad multibeam vendor format
0085_20071119_013752_raw.mb56.gz 6.18MB Simrad multibeam vendor format
0086_20071119_023752_raw.mb56.gz 6.00MB Simrad multibeam vendor format
0087_20071119_033753_raw.mb56.gz 3.33MB Simrad multibeam vendor format
0088_20071119_054515_raw.mb56.gz 6.03MB Simrad multibeam vendor format
0089_20071119_064516_raw.mb56.gz 6.54MB Simrad multibeam vendor format
0090_20071119_074516_raw.mb56.gz 3.65MB Simrad multibeam vendor format
0091_20071119_132734_raw.mb56.gz 5.94MB Simrad multibeam vendor format
0092_20071119_142735_raw.mb56.gz 6.29MB Simrad multibeam vendor format
0093_20071119_152735_raw.mb56.gz 3.42MB Simrad multibeam vendor format
0094_20071119_170700_raw.mb56.gz 6.60MB Simrad multibeam vendor format
0095_20071119_180701_raw.mb56.gz 6.70MB Simrad multibeam vendor format
0096_20071119_190701_raw.mb56.gz 3.69MB Simrad multibeam vendor format
0097_20071119_204637_raw.mb56.gz 6.44MB Simrad multibeam vendor format
0098_20071119_214637_raw.mb56.gz 2.09MB Simrad multibeam vendor format
0099_20071119_231607_raw.mb56.gz 6.68MB Simrad multibeam vendor format
0100_20071120_001607_raw.mb56.gz 6.89MB Simrad multibeam vendor format
0101_20071120_011608_raw.mb56.gz 7.21MB Simrad multibeam vendor format
0102_20071120_021608_raw.mb56.gz 4.72MB Simrad multibeam vendor format
0103_20071120_041812_raw.mb56.gz 6.47MB Simrad multibeam vendor format
0104_20071120_051812_raw.mb56.gz 6.33MB Simrad multibeam vendor format
0105_20071120_061813_raw.mb56.gz 6.68MB Simrad multibeam vendor format
0106_20071120_071813_raw.mb56.gz 7.24MB Simrad multibeam vendor format
0107_20071120_081813_raw.mb56.gz 4.93MB Simrad multibeam vendor format
0108_20071120_094454_raw.mb56.gz 7.14MB Simrad multibeam vendor format
0109_20071120_104454_raw.mb56.gz 7.00MB Simrad multibeam vendor format
0110_20071120_114454_raw.mb56.gz 6.92MB Simrad multibeam vendor format
0111_20071120_124454_raw.mb56.gz 427.7KB Simrad multibeam vendor format
0112_20071120_141644_raw.mb56.gz 2.78MB Simrad multibeam vendor format
0113_20071120_144134_raw.mb56.gz 6.52MB Simrad multibeam vendor format
0114_20071120_154134_raw.mb56.gz 6.14MB Simrad multibeam vendor format
0115_20071120_164134_raw.mb56.gz 6.03MB Simrad multibeam vendor format
0116_20071120_174134_raw.mb56.gz 2.74MB Simrad multibeam vendor format
0117_20071120_191851_raw.mb56.gz 6.06MB Simrad multibeam vendor format
0118_20071120_201851_raw.mb56.gz 5.86MB Simrad multibeam vendor format
0119_20071120_211852_raw.mb56.gz 5.73MB Simrad multibeam vendor format
0120_20071120_221852_raw.mb56.gz 0.56MB Simrad multibeam vendor format
0121_20071120_233644_raw.mb56.gz 5.62MB Simrad multibeam vendor format
0122_20071121_003644_raw.mb56.gz 5.90MB Simrad multibeam vendor format
0123_20071121_013645_raw.mb56.gz 6.13MB Simrad multibeam vendor format
0124_20071121_023645_raw.mb56.gz 2.41MB Simrad multibeam vendor format
0125_20071121_044503_raw.mb56.gz 5.78MB Simrad multibeam vendor format
0126_20071121_054503_raw.mb56.gz 6.06MB Simrad multibeam vendor format
0127_20071121_064503_raw.mb56.gz 6.12MB Simrad multibeam vendor format
0128_20071121_074504_raw.mb56.gz 1.86MB Simrad multibeam vendor format
0129_20071121_090552_raw.mb56.gz 5.91MB Simrad multibeam vendor format
0130_20071121_100552_raw.mb56.gz 5.47MB Simrad multibeam vendor format
0131_20071121_110552_raw.mb56.gz 5.31MB Simrad multibeam vendor format
0132_20071121_120552_raw.mb56.gz 6.22MB Simrad multibeam vendor format
0133_20071121_135518_raw.mb56.gz 8.21MB Simrad multibeam vendor format
0134_20071121_145518_raw.mb56.gz 5.65MB Simrad multibeam vendor format
0135_20071121_163923_raw.mb56.gz 7.62MB Simrad multibeam vendor format
0136_20071121_173924_raw.mb56.gz 6.61MB Simrad multibeam vendor format
0137_20071121_183924_raw.mb56.gz 3.61MB Simrad multibeam vendor format
0138_20071121_211227_raw.mb56.gz 6.55MB Simrad multibeam vendor format
0139_20071121_221227_raw.mb56.gz 2.66MB Simrad multibeam vendor format
0140_20071122_003411_raw.mb56.gz 6.61MB Simrad multibeam vendor format
0141_20071122_013411_raw.mb56.gz 6.06MB Simrad multibeam vendor format
0142_20071122_023412_raw.mb56.gz 0.62MB Simrad multibeam vendor format
0145_20071122_044208_raw.mb56.gz 5.49MB Simrad multibeam vendor format
0146_20071122_054208_raw.mb56.gz 7.29MB Simrad multibeam vendor format
0147_20071122_064208_raw.mb56.gz 9.11MB Simrad multibeam vendor format
0148_20071122_074208_raw.mb56.gz 204.0KB Simrad multibeam vendor format
0149_20071122_081941_raw.mb56.gz 19.95MB Simrad multibeam vendor format
0150_20071122_091053_raw.mb56.gz 12.40MB Simrad multibeam vendor format
0151_20071122_100439_raw.mb56.gz 35.68MB Simrad multibeam vendor format
0152_20071122_110439_raw.mb56.gz 32.43MB Simrad multibeam vendor format
0153_20071122_120439_raw.mb56.gz 34.64MB Simrad multibeam vendor format
0154_20071122_130439_raw.mb56.gz 26.36MB Simrad multibeam vendor format
0155_20071122_140439_raw.mb56.gz 15.03MB Simrad multibeam vendor format
0156_20071122_150439_raw.mb56.gz 2.88MB Simrad multibeam vendor format
0157_20071122_174900_raw.mb56.gz 6.88MB Simrad multibeam vendor format
0158_20071122_184900_raw.mb56.gz 6.03MB Simrad multibeam vendor format
0159_20071122_194900_raw.mb56.gz 3.47MB Simrad multibeam vendor format
0160_20071122_223219_raw.mb56.gz 5.77MB Simrad multibeam vendor format
0161_20071122_233219_raw.mb56.gz 6.01MB Simrad multibeam vendor format
0162_20071123_003219_raw.mb56.gz 5.52MB Simrad multibeam vendor format
0163_20071123_064824_raw.mb56.gz 8.96MB Simrad multibeam vendor format
0164_20071123_074824_raw.mb56.gz 4.46MB Simrad multibeam vendor format
0165_20071123_110136_raw.mb56.gz 6.05MB Simrad multibeam vendor format
0166_20071123_120136_raw.mb56.gz 4.67MB Simrad multibeam vendor format
0167_20071123_130134_raw.mb56.gz 5.10MB Simrad multibeam vendor format
0168_20071123_140135_raw.mb56.gz 4.48MB Simrad multibeam vendor format
0169_20071123_163254_raw.mb56.gz 0.98MB Simrad multibeam vendor format
0170_20071123_181647_raw.mb56.gz 3.18MB Simrad multibeam vendor format
0171_20071123_185026_raw.mb56.gz 5.76MB Simrad multibeam vendor format
0172_20071123_195026_raw.mb56.gz 5.71MB Simrad multibeam vendor format
0173_20071123_205026_raw.mb56.gz 5.34MB Simrad multibeam vendor format
0174_20071123_215026_raw.mb56.gz 2.27MB Simrad multibeam vendor format
0175_20071124_004841_raw.mb56.gz 6.89MB Simrad multibeam vendor format
0176_20071124_014841_raw.mb56.gz 6.86MB Simrad multibeam vendor format
0177_20071124_024841_raw.mb56.gz 6.29MB Simrad multibeam vendor format
0178_20071124_034841_raw.mb56.gz 6.42MB Simrad multibeam vendor format
0179_20071124_044841_raw.mb56.gz 6.51MB Simrad multibeam vendor format
0180_20071124_054842_raw.mb56.gz 7.14MB Simrad multibeam vendor format
0181_20071124_064842_raw.mb56.gz 7.25MB Simrad multibeam vendor format
0182_20071124_074842_raw.mb56.gz 7.05MB Simrad multibeam vendor format
0183_20071124_084842_raw.mb56.gz 6.37MB Simrad multibeam vendor format
0184_20071124_094842_raw.mb56.gz 6.45MB Simrad multibeam vendor format
0185_20071124_104842_raw.mb56.gz 7.44MB Simrad multibeam vendor format
0186_20071124_114842_raw.mb56.gz 7.25MB Simrad multibeam vendor format
0187_20071124_124843_raw.mb56.gz 6.96MB Simrad multibeam vendor format
0188_20071124_134843_raw.mb56.gz 6.78MB Simrad multibeam vendor format
0189_20071124_144843_raw.mb56.gz 4.91MB Simrad multibeam vendor format
0190_20071124_190355_raw.mb56.gz 6.00MB Simrad multibeam vendor format
0191_20071124_200353_raw.mb56.gz 6.30MB Simrad multibeam vendor format
0192_20071124_210353_raw.mb56.gz 6.38MB Simrad multibeam vendor format
0193_20071124_220353_raw.mb56.gz 5.60MB Simrad multibeam vendor format
0194_20071124_230353_raw.mb56.gz 4.11MB Simrad multibeam vendor format
0195_20071125_031721_raw.mb56.gz 5.87MB Simrad multibeam vendor format
0196_20071125_041722_raw.mb56.gz 6.29MB Simrad multibeam vendor format
0197_20071125_051722_raw.mb56.gz 6.04MB Simrad multibeam vendor format
0198_20071125_061722_raw.mb56.gz 5.98MB Simrad multibeam vendor format
0199_20071125_071722_raw.mb56.gz 2.85MB Simrad multibeam vendor format
0200_20071125_105741_raw.mb56.gz 6.26MB Simrad multibeam vendor format
0201_20071125_115741_raw.mb56.gz 6.05MB Simrad multibeam vendor format
0202_20071125_125741_raw.mb56.gz 6.10MB Simrad multibeam vendor format
0203_20071125_135741_raw.mb56.gz 6.06MB Simrad multibeam vendor format
0204_20071125_145741_raw.mb56.gz 5.45MB Simrad multibeam vendor format
0205_20071125_155742_raw.mb56.gz 205.3KB Simrad multibeam vendor format
0206_20071125_162750_raw.mb56.gz 2.10MB Simrad multibeam vendor format
0207_20071125_194134_raw.mb56.gz 1.86MB Simrad multibeam vendor format
0208_20071125_200236_raw.mb56.gz 5.80MB Simrad multibeam vendor format
0209_20071125_210237_raw.mb56.gz 6.04MB Simrad multibeam vendor format
0210_20071125_220237_raw.mb56.gz 6.45MB Simrad multibeam vendor format
0211_20071125_230237_raw.mb56.gz 0.89MB Simrad multibeam vendor format
0212_20071126_010923_raw.mb56.gz 5.37MB Simrad multibeam vendor format
0213_20071126_020923_raw.mb56.gz 4.38MB Simrad multibeam vendor format
0214_20071126_030924_raw.mb56.gz 4.59MB Simrad multibeam vendor format
0215_20071126_040922_raw.mb56.gz 2.28MB Simrad multibeam vendor format
0216_20071126_083707_raw.mb56.gz 5.32MB Simrad multibeam vendor format
0217_20071126_093707_raw.mb56.gz 4.84MB Simrad multibeam vendor format
0218_20071126_152639_raw.mb56.gz 5.20MB Simrad multibeam vendor format
0219_20071126_162639_raw.mb56.gz 5.44MB Simrad multibeam vendor format
0220_20071126_172616_raw.mb56.gz 4.00MB Simrad multibeam vendor format
0221_20071126_210452_raw.mb56.gz 5.77MB Simrad multibeam vendor format
0222_20071126_220452_raw.mb56.gz 5.25MB Simrad multibeam vendor format
0223_20071126_230452_raw.mb56.gz 4.87MB Simrad multibeam vendor format
0224_20071127_032610_raw.mb56.gz 5.24MB Simrad multibeam vendor format
0225_20071127_042610_raw.mb56.gz 5.40MB Simrad multibeam vendor format
0226_20071127_052610_raw.mb56.gz 1.86MB Simrad multibeam vendor format
0228_20071127_090957_raw.mb56.gz 5.74MB Simrad multibeam vendor format
0229_20071127_100957_raw.mb56.gz 5.63MB Simrad multibeam vendor format
0230_20071127_110957_raw.mb56.gz 1.13MB Simrad multibeam vendor format
0232_20071127_143004_raw.mb56.gz 5.56MB Simrad multibeam vendor format
0233_20071127_153005_raw.mb56.gz 5.39MB Simrad multibeam vendor format
0234_20071127_163005_raw.mb56.gz 2.96MB Simrad multibeam vendor format
0235_20071127_184508_raw.mb56.gz 4.43MB Simrad multibeam vendor format
0236_20071127_194508_raw.mb56.gz 4.89MB Simrad multibeam vendor format
0237_20071127_204508_raw.mb56.gz 5.23MB Simrad multibeam vendor format
0238_20071127_214509_raw.mb56.gz 5.49MB Simrad multibeam vendor format
0239_20071127_224509_raw.mb56.gz 5.96MB Simrad multibeam vendor format
0240_20071127_234509_raw.mb56.gz 6.06MB Simrad multibeam vendor format
0241_20071128_004509_raw.mb56.gz 6.14MB Simrad multibeam vendor format
0242_20071128_014509_raw.mb56.gz 1.41MB Simrad multibeam vendor format
0243_20071128_052103_raw.mb56.gz 6.72MB Simrad multibeam vendor format
0244_20071128_062103_raw.mb56.gz 6.07MB Simrad multibeam vendor format
0245_20071128_072103_raw.mb56.gz 0.92MB Simrad multibeam vendor format
0246_20071128_101246_raw.mb56.gz 6.30MB Simrad multibeam vendor format
0247_20071128_111246_raw.mb56.gz 6.29MB Simrad multibeam vendor format
0248_20071128_150729_raw.mb56.gz 5.98MB Simrad multibeam vendor format
0249_20071128_160729_raw.mb56.gz 5.74MB Simrad multibeam vendor format
0250_20071128_170558_raw.mb56.gz 1.33MB Simrad multibeam vendor format
0251_20071128_195335_raw.mb56.gz 6.54MB Simrad multibeam vendor format
0252_20071128_205335_raw.mb56.gz 5.14MB Simrad multibeam vendor format
0253_20071129_004822_raw.mb56.gz 6.77MB Simrad multibeam vendor format
0254_20071129_014822_raw.mb56.gz 6.75MB Simrad multibeam vendor format
0255_20071129_024822_raw.mb56.gz 300.9KB Simrad multibeam vendor format
0256_20071129_054102_raw.mb56.gz 6.92MB Simrad multibeam vendor format
0257_20071129_064102_raw.mb56.gz 6.56MB Simrad multibeam vendor format
0258_20071129_105741_raw.mb56.gz 6.62MB Simrad multibeam vendor format
0259_20071129_115741_raw.mb56.gz 6.68MB Simrad multibeam vendor format
0260_20071129_125741_raw.mb56.gz 2.10MB Simrad multibeam vendor format
0261_20071129_160120_raw.mb56.gz 6.52MB Simrad multibeam vendor format
0262_20071129_170121_raw.mb56.gz 6.20MB Simrad multibeam vendor format
0263_20071129_205145_raw.mb56.gz 7.01MB Simrad multibeam vendor format
0264_20071129_215146_raw.mb56.gz 6.60MB Simrad multibeam vendor format
0265_20071129_225146_raw.mb56.gz 4.51MB Simrad multibeam vendor format
0266_20071130_024550_raw.mb56.gz 6.45MB Simrad multibeam vendor format
0267_20071130_034548_raw.mb56.gz 5.25MB Simrad multibeam vendor format
0268_20071130_073010_raw.mb56.gz 2.95MB Simrad multibeam vendor format
0269_20071130_075849_raw.mb56.gz 6.31MB Simrad multibeam vendor format
0270_20071130_085849_raw.mb56.gz 3.11MB Simrad multibeam vendor format
0271_20071130_120702_raw.mb56.gz 6.34MB Simrad multibeam vendor format
0272_20071130_130702_raw.mb56.gz 8.80MB Simrad multibeam vendor format
0273_20071130_175741_raw.mb56.gz 3.65MB Simrad multibeam vendor format
0274_20071130_183132_raw.mb56.gz 9.11MB Simrad multibeam vendor format
0275_20071201_005004_raw.mb56.gz 15.27MB Simrad multibeam vendor format
0276_20071201_055941_raw.mb56.gz 16.90MB Simrad multibeam vendor format
0277_20071201_112514_raw.mb56.gz 12.00MB Simrad multibeam vendor format
0278_20071201_153838_raw.mb56.gz 12.46MB Simrad multibeam vendor format
0279_20071201_203527_raw.mb56.gz 6.34MB Simrad multibeam vendor format
0280_20071202_012631_raw.mb56.gz 15.19MB Simrad multibeam vendor format
0281_20071202_034521_raw.mb56.gz 13.27MB Simrad multibeam vendor format
0282_20071202_070527_raw.mb56.gz 13.84MB Simrad multibeam vendor format
0283_20071202_120501_raw.mb56.gz 12.17MB Simrad multibeam vendor format
0284_20071202_164759_raw.mb56.gz 9.13MB Simrad multibeam vendor format
0285_20071202_210009_raw.mb56.gz 2.53MB Simrad multibeam vendor format
0286_20071202_231913_raw.mb56.gz 4.21MB Simrad multibeam vendor format
0287_20071203_023325_raw.mb56.gz 11.77MB Simrad multibeam vendor format
0288_20071203_053217_raw.mb56.gz 9.12MB Simrad multibeam vendor format
0289_20071203_081314_raw.mb56.gz 16.03MB Simrad multibeam vendor format
0290_20071203_130912_raw.mb56.gz 38.51MB Simrad multibeam vendor format
0291_20071203_231707_raw.mb56.gz 16.88MB Simrad multibeam vendor format
0292_20071204_043546_raw.mb56.gz 25.18MB Simrad multibeam vendor format
0293_20071204_111047_raw.mb56.gz 12.65MB Simrad multibeam vendor format
0294_20071204_153201_raw.mb56.gz 1.05MB Simrad multibeam vendor format
0295_20071204_154118_raw.mb56.gz 1.34MB Simrad multibeam vendor format
0296_20071204_185555_raw.mb56.gz 470.7KB Simrad multibeam vendor format
0297_20071204_201629_raw.mb56.gz 5.10MB Simrad multibeam vendor format
0298_20071204_212352_raw.mb56.gz 9.00MB Simrad multibeam vendor format
0299_20071204_222352_raw.mb56.gz 8.22MB Simrad multibeam vendor format
0300_20071204_232353_raw.mb56.gz 7.81MB Simrad multibeam vendor format
0301_20071205_002353_raw.mb56.gz 7.26MB Simrad multibeam vendor format
0302_20071205_012353_raw.mb56.gz 6.35MB Simrad multibeam vendor format
0303_20071205_022353_raw.mb56.gz 6.78MB Simrad multibeam vendor format
0304_20071205_032353_raw.mb56.gz 8.31MB Simrad multibeam vendor format
0305_20071205_042353_raw.mb56.gz 9.32MB Simrad multibeam vendor format
0306_20071205_052353_raw.mb56.gz 9.15MB Simrad multibeam vendor format
0307_20071205_062353_raw.mb56.gz 10.12MB Simrad multibeam vendor format
0308_20071205_072353_raw.mb56.gz 8.57MB Simrad multibeam vendor format
0310_20071205_095805_raw.mb56.gz 4.49MB Simrad multibeam vendor format
0311_20071205_122254_raw.mb56.gz 13.63MB Simrad multibeam vendor format
0312_20071205_132254_raw.mb56.gz 7.25MB Simrad multibeam vendor format
0313_20071206_005914_raw.mb56.gz 6.25MB Simrad multibeam vendor format
0314_20071206_015914_raw.mb56.gz 7.98MB Simrad multibeam vendor format
0315_20071206_025914_raw.mb56.gz 9.45MB Simrad multibeam vendor format
0316_20071206_035914_raw.mb56.gz 11.45MB Simrad multibeam vendor format

Metadata Files: 2

Files File Size Description
NBP0710_Multibeam.xml NGDC created ISO metadata
NBP0710.xml 24.7KB XML metadata file